Weather History for Panama City Tyndall AFB, FL

Change the Weather History Date:

Tuesday, February 26, 2013

  Actual Average Record
Temperature  
Mean Temperature 62 °F -  
Max Temperature 69 °F 66 °F 80 °F (2001)
Min Temperature 55 °F 48 °F 42 °F (2004)
Degree Days  
Heating Degree Days 2    
Growing Degree Days 12 (Base 50)    
Moisture  
Dew Point 61 °F    
Average Humidity 92    
Maximum Humidity 100    
Minimum Humidity 80    
Precipitation  
Precipitation 1.68 in - - ()
Sea Level Pressure  
Sea Level Pressure 29.69 in    
Wind  
Wind Speed 19 mph (WSW)    
Max Wind Speed 28 mph    
Max Gust Speed 34 mph    
Visibility 8 miles    
Events Fog , Rain , Thunderstorm    
Averages and records for this station are not official NWS values.
T = Trace of Precipitation, MM = Missing Value Source: NWS Daily Summary

Daily Weather History Graph

Daily Weather History Graph

Search for Another Location

Airport:

Trip Planner

Search our weather history database for the weather conditions in past years. The results will help you decide how hot, cold, wet, or windy it might be!

Date:

Astronomy

Feb. 26, 2013 Rise Set
Actual Time 6:11 AM CST 5:39 PM CST
Civil Twilight 5:47 AM CST 6:03 PM CST
Nautical Twilight 5:19 AM CST 6:31 PM CST
Astronomical Twilight 4:51 AM CST 6:59 PM CST
Moon 6:45 PM CST (2/26) 6:20 AM CST (2/26)
Length of Visible Light 12h 16m
Length of Day
11h 28m
Full, 99% of the Moon is Illuminated
Feb 26
Full
Mar 4
Last Quarter
Mar 11
New
Mar 19
First Quarter
Mar 27
Full

Hourly Weather History & Observations

Time (CST) Temp. Dew Point Humidity Pressure Visibility Wind Dir Wind Speed Gust Speed Precip Events Conditions
12:38 AM 69.8 °F 69.8 °F 100% 29.59 in 8.0 mi SSE 18.4 mph 32.2 mph N/A   Light Drizzle
12:58 AM 69.4 °F 69.4 °F 100% 29.57 in 6.0 mi SE 20.7 mph 32.2 mph 0.02 in Rain Light Rain
1:04 AM 69.8 °F 69.8 °F 100% 29.57 in 7.0 mi SSE 18.4 mph 28.8 mph N/A Rain , Thunderstorm Light Thunderstorms and Rain
1:19 AM 69.8 °F 69.8 °F 100% 29.57 in 6.0 mi SSE 18.4 mph 26.5 mph N/A Rain Light Rain
1:20 AM 69.8 °F 69.8 °F 100% 29.57 in 6.0 mi SSE 18.4 mph 26.5 mph N/A Rain , Thunderstorm Light Thunderstorms and Rain
1:30 AM 69.8 °F 69.8 °F 100% 29.55 in 5.0 mi SE 24.2 mph 28.8 mph N/A Rain , Thunderstorm Light Thunderstorms and Rain
1:35 AM 69.8 °F 69.8 °F 100% 29.55 in 4.0 mi SSE 21.9 mph 29.9 mph N/A Rain , Thunderstorm Light Thunderstorms and Rain
1:40 AM 69.8 °F 69.8 °F 100% 29.54 in 2.0 mi SE 26.5 mph 34.5 mph N/A Rain , Thunderstorm Thunderstorms and Rain
1:45 AM 69.8 °F 69.8 °F 100% 29.53 in 1.5 mi SE 21.9 mph 34.5 mph N/A Rain , Thunderstorm Heavy Thunderstorms and Rain
1:50 AM 69.8 °F 69.8 °F 100% 29.53 in 1.8 mi SE 20.7 mph 33.4 mph N/A Rain Heavy Rain
1:55 AM 69.8 °F 69.8 °F 100% 29.52 in 2.0 mi SE 20.7 mph 32.2 mph N/A Rain Rain
1:58 AM 69.4 °F 69.4 °F 100% 29.52 in 2.0 mi SE 20.7 mph 32.2 mph 0.31 in Rain Rain
2:03 AM 69.8 °F 69.8 °F 100% 29.51 in 1.8 mi SSE 25.3 mph 33.4 mph N/A Rain Light Rain
2:08 AM 69.8 °F 69.8 °F 100% 29.53 in 1.2 mi SSE 27.6 mph 34.5 mph N/A Rain Heavy Rain
2:13 AM 69.8 °F 69.8 °F 100% 29.55 in 1.0 mi South 23.0 mph 34.5 mph N/A Rain Heavy Rain
2:18 AM 69.8 °F 69.8 °F 100% 29.55 in 0.8 mi South 8.1 mph 34.5 mph N/A Rain Heavy Rain
2:23 AM 69.8 °F 69.8 °F 100% 29.53 in 0.5 mi WNW 21.9 mph 23.0 mph N/A Fog , Rain Heavy Rain
2:27 AM 69.8 °F 69.8 °F 100% 29.53 in 0.5 mi WSW 11.5 mph 29.9 mph N/A Fog , Rain Heavy Rain
2:32 AM 68.0 °F 68.0 °F 100% 29.54 in 0.5 mi WSW 13.8 mph 29.9 mph N/A Fog , Rain Heavy Rain
2:37 AM 69.8 °F 69.8 °F 100% 29.54 in 1.8 mi WSW 11.5 mph - N/A Rain Light Rain
2:42 AM 69.8 °F 69.8 °F 100% 29.55 in 9.0 mi SW 15.0 mph - N/A Rain Light Rain
2:57 AM 68.0 °F 68.0 °F 100% 29.56 in 10.0 mi SW 11.5 mph - N/A   Light Drizzle
2:58 AM 68.5 °F 68.5 °F 100% 29.57 in 10.0 mi SW 11.5 mph - 1.33 in   Light Drizzle
3:03 AM 68.0 °F 68.0 °F 100% 29.57 in 10.0 mi SW 13.8 mph - N/A   Light Drizzle
3:23 AM 68.0 °F 68.0 °F 100% 29.57 in 9.0 mi WSW 15.0 mph 27.6 mph N/A Rain Light Rain
3:58 AM 66.7 °F 66.7 °F 100% 29.58 in 10.0 mi West 16.1 mph 26.5 mph 0.02 in   Light Drizzle
4:58 AM 64.4 °F 61.7 °F 91% 29.62 in 10.0 mi West 17.3 mph 23.0 mph 0.00 in   Light Drizzle
5:58 AM 64.0 °F 60.3 °F 87% 29.64 in 10.0 mi West 13.8 mph 21.9 mph 0.00 in   Light Drizzle
6:58 AM 63.1 °F 57.0 °F 80% 29.67 in 10.0 mi West 19.6 mph 26.5 mph 0.00 in   Light Drizzle
7:05 AM 62.6 °F 57.2 °F 82% 29.67 in 10.0 mi West 20.7 mph 26.5 mph N/A   Partly Cloudy
7:58 AM 63.1 °F 58.6 °F 85% 29.71 in 10.0 mi West 19.6 mph 28.8 mph 0.00 in   Clear
8:58 AM 63.5 °F 57.9 °F 82% 29.73 in 10.0 mi West 17.3 mph 26.5 mph N/A   Clear
9:58 AM 62.8 °F 57.9 °F 84% 29.75 in 10.0 mi West 23.0 mph 31.1 mph N/A   Clear
10:58 AM 63.0 °F 57.9 °F 84% 29.77 in 10.0 mi West 23.0 mph 31.1 mph N/A   Clear
11:58 AM 62.6 °F 57.0 °F 82% 29.77 in 10.0 mi West 19.6 mph 26.5 mph N/A   Clear
12:58 PM 63.1 °F 57.7 °F 83% 29.76 in 10.0 mi West 21.9 mph 28.8 mph N/A   Clear
1:33 PM 62.6 °F 57.2 °F 82% 29.76 in 10.0 mi West 23.0 mph 28.8 mph N/A   Mostly Cloudy
1:58 PM 61.3 °F 57.4 °F 87% 29.77 in 10.0 mi West 20.7 mph 25.3 mph N/A   Mostly Cloudy
2:18 PM 62.6 °F 57.2 °F 82% 29.76 in 10.0 mi West 20.7 mph 32.2 mph N/A   Scattered Clouds
2:58 PM 60.8 °F 56.3 °F 85% 29.77 in 10.0 mi West 20.7 mph 28.8 mph N/A   Partly Cloudy
3:58 PM 60.4 °F 56.1 °F 86% 29.77 in 10.0 mi West 18.4 mph - N/A   Scattered Clouds
4:13 PM 60.8 °F 55.4 °F 82% 29.77 in 10.0 mi WSW 17.3 mph - N/A   Mostly Cloudy
4:33 PM 59.0 °F 55.4 °F 88% 29.77 in 10.0 mi WSW 17.3 mph 24.2 mph N/A   Scattered Clouds
4:38 PM 59.0 °F 55.4 °F 88% 29.77 in 10.0 mi West 15.0 mph 24.2 mph N/A   Mostly Cloudy
4:43 PM 59.0 °F 55.4 °F 88% 29.77 in 10.0 mi WSW 16.1 mph 21.9 mph N/A   Scattered Clouds
4:58 PM 59.0 °F 55.2 °F 87% 29.78 in 10.0 mi WSW 17.3 mph 28.8 mph N/A   Partly Cloudy
5:23 PM 59.0 °F 55.4 °F 88% 29.78 in 10.0 mi West 17.3 mph 26.5 mph N/A   Mostly Cloudy
5:38 PM 59.0 °F 55.4 °F 88% 29.79 in 10.0 mi WSW 16.1 mph 25.3 mph N/A   Scattered Clouds
5:48 PM 59.0 °F 55.4 °F 88% 29.79 in 10.0 mi WSW 15.0 mph 26.5 mph N/A   Mostly Cloudy
5:53 PM 59.0 °F 55.4 °F 88% 29.79 in 10.0 mi WSW 18.4 mph 25.3 mph N/A   Scattered Clouds
5:58 PM 59.0 °F 55.4 °F 88% 29.80 in 10.0 mi WSW 17.3 mph 25.3 mph N/A   Mostly Cloudy
6:03 PM 59.0 °F 55.4 °F 88% 29.80 in 10.0 mi WSW 17.3 mph - N/A   Scattered Clouds
6:13 PM 59.0 °F 55.4 °F 88% 29.80 in 10.0 mi West 17.3 mph - N/A   Mostly Cloudy
6:38 PM 59.0 °F 55.4 °F 88% 29.81 in 10.0 mi West 21.9 mph 31.1 mph N/A   Mostly Cloudy
6:45 PM 59.0 °F 55.4 °F 88% 29.81 in 10.0 mi West 19.6 mph 26.5 mph N/A   Scattered Clouds
6:58 PM 58.5 °F 54.3 °F 86% 29.83 in 10.0 mi West 18.4 mph - N/A   Scattered Clouds
7:18 PM 59.0 °F 55.4 °F 88% 29.83 in 10.0 mi West 18.4 mph 24.2 mph N/A   Mostly Cloudy
7:58 PM 58.6 °F 54.0 °F 84% 29.86 in 10.0 mi West 18.4 mph 26.5 mph N/A   Mostly Cloudy
8:53 PM 57.2 °F 53.6 °F 88% 29.87 in 10.0 mi West 17.3 mph 20.7 mph N/A   Scattered Clouds
8:58 PM 57.6 °F 53.6 °F 87% 29.88 in 10.0 mi West 17.3 mph - N/A   Partly Cloudy
9:13 PM 57.2 °F 53.6 °F 88% 29.88 in 10.0 mi West 16.1 mph 21.9 mph N/A   Mostly Cloudy
9:18 PM 57.2 °F 53.6 °F 88% 29.88 in 10.0 mi West 12.7 mph 21.9 mph N/A   Scattered Clouds
9:58 PM 57.4 °F 53.6 °F 87% 29.90 in 10.0 mi West 16.1 mph - N/A   Partly Cloudy
10:58 PM 56.8 °F 52.7 °F 86% 29.89 in 10.0 mi WNW 13.8 mph - N/A   Mostly Cloudy
11:58 PM 55.0 °F 52.2 °F 90% 29.91 in 10.0 mi WNW 10.4 mph - N/A   Partly Cloudy